RH
76 77 75 72 69 70 73 73 75 76 77 78 77 76 74 71 51 54 60 64 70 70 68 76 72 75 74 71 66 75 76 76 75
80 79 77 72 70 69 72 74 74 74 76 78 80 84 82 50 52 55 62 63 70 67 66 66 66 71 75 75 76 76 76 75 74
81 79 78 73 71 70 72 73 73 73 75 81 82 83 81 53 50 52 50 72 66 65 65 67 70 70 72 70 77 77 76 76 75
82 80 78 75 72 73 73 74 73 72 72 77 82 84 82 42 45 43 44 75 66 65 66 65 66 67 70 71 66 69 74 76 73
87 85 82 77 76 74 75 75 74 76 73 72 73 81 83 43 48 44 52 68 65 65 64 64 64 63 65 67 68 68 66 62 62
65 85 85 83 77 75 74 76 81 81 79 76 75 78 42 43 43 42 75 73 65 64 63 63 62 62 62 64 65 65 66 67 65
57 78 89 83 83 81 76 78 84 83 42 45 69 40 43 44 45 44 76 77 69 66 64 63 62 60 60 61 62 62 62 62 62
54 54 58 57 82 54 63 62 51 49 46 43 38 41 42 39 43 54 78 78 75 69 68 66 63 62 61 61 60 61 59 60 60
44 42 46 50 46 49 51 46 48 51 49 43 41 40 39 37 39 48 82 83 78 74 70 70 66 64 63 62 62 60 61 60 61
45 44 42 42 43 45 45 46 44 44 42 42 43 40 39 38 38 40 85 87 83 79 73 70 70 67 65 65 63 62 62 61 62
50 49 48 45 46 45 47 47 46 45 42 41 42 43 42 41 41 40 43 86 86 82 78 72 68 68 66 66 65 65 63 64 63
53 52 52 48 46 47 48 50 50 51 48 48 44 44 45 46 47 45 42 47 89 87 80 75 72 68 68 66 64 66 66 65 65
57 54 54 52 51 52 52 52 53 52 50 49 47 48 47 48 47 47 46 46 45 70 81 80 76 72 68 67 64 65 68 67 66
58 56 54 52 55 56 56 56 55 55 54 54 52 50 50 49 48 48 48 49 51 48 67 86 88 86 77 68 64 64 67 70 68
58 57 56 54 56 57 56 59 57 60 59 56 55 52 51 51 50 46 42 44 49 50 52 52 55 89 85 77 68 64 65 71 72
60 60 59 62 63 58 58 61 66 66 60 64 59 55 52 50 47 46 41 44 48 48 50 50 49 49 84 83 80 72 66 67 73
70 71 72 71 73 70 68 69 72 69 64 70 76 75 49 41 47 46 47 47 45 46 47 47 48 49 48 57 82 85 75 68 66
84 84 85 86 86 87 84 81 80 84 77 73 76 80 59 59 52 50 45 47 45 46 47 48 50 51 50 61 65 83 83 79 72
65 66 68 77 86 90 88 86 92 92 91 87 83 74 82 91 84 60 53 52 51 49 45 46 48 51 53 66 78 83 84 78 75
63 64 66 67 73 80 83 86 93 94 94 91 86 87 88 87 95 93 72 65 58 49 47 48 49 55 59 62 72 84 81 78 74
Wind_Speed
13 13 11 10 10 11 11 10 10 11 10 10 10 9 5 6 7 7 7 10 12 12 11 10 6 11 6 6 6 7 10 10 12
14 12 11 10 10 10 10 9 10 10 10 10 10 9 3 7 7 6 8 9 10 9 9 9 9 12 13 8 6 9 10 10 11
13 11 10 9 9 9 9 8 8 8 9 9 8 6 4 5 6 6 6 8 8 8 8 9 10 10 10 10 9 9 9 9 9
13 10 8 8 8 7 7 7 6 6 7 7 6 5 3 2 4 3 4 6 7 7 7 7 8 8 8 8 8 7 7 7 7
10 9 6 6 6 6 5 5 5 5 5 4 4 2 3 1 1 2 6 4 5 5 5 5 5 6 6 6 7 8 7 6 6
8 7 6 5 5 4 4 4 4 4 4 3 1 4 1 2 0 1 6 2 1 3 3 3 3 4 4 5 4 5 5 7 6
1 4 3 2 2 2 2 3 4 6 2 4 6 3 2 2 2 1 3 4 4 2 1 1 2 2 2 2 2 3 3 3 2
4 3 5 5 5 5 6 6 5 3 3 3 3 3 4 3 3 1 3 6 7 6 5 4 4 4 4 3 3 2 2 2 2
4 3 4 4 4 4 4 3 4 4 5 5 5 5 5 4 3 3 5 7 9 10 7 7 6 7 6 6 4 3 2 1 1
4 4 4 4 3 4 4 4 4 5 5 5 6 6 6 6 4 4 8 7 10 11 11 10 9 9 9 7 6 5 4 4 3
4 4 4 4 4 4 4 4 4 4 5 6 7 7 6 7 7 5 5 9 10 12 13 13 13 11 10 10 9 8 7 7 6
6 5 4 5 4 6 5 5 5 5 5 7 7 6 7 6 7 7 6 5 11 13 14 15 15 14 13 12 12 11 10 9 8
6 5 5 5 5 5 5 5 6 6 6 6 5 6 6 8 8 7 7 7 7 9 14 16 17 16 15 15 14 13 14 13 13
7 6 6 6 6 6 6 6 7 7 7 7 7 7 7 8 7 10 10 10 9 7 7 11 12 14 16 17 17 16 15 17 16
7 7 8 7 7 7 7 9 7 8 7 7 8 8 8 8 8 10 9 9 8 8 9 7 8 15 17 19 19 19 17 16 19
8 7 7 7 8 9 9 8 9 8 8 6 7 7 7 9 9 8 8 7 5 6 6 6 6 6 13 16 19 20 20 19 18
7 8 8 8 8 9 9 9 8 6 5 5 4 5 6 8 5 4 4 6 4 4 5 6 7 7 7 7 8 16 21 22 21
3 5 5 6 5 7 7 7 9 7 5 8 5 3 6 2 2 4 3 3 2 3 3 4 5 6 7 6 9 12 13 19 22
3 3 4 6 4 6 7 6 5 6 6 2 5 7 2 3 3 1 2 2 4 4 3 4 5 5 5 6 7 9 12 15 18
3 3 4 4 3 6 7 7 6 5 5 5 3 5 5 6 5 3 4 2 4 6 6 6 5 5 5 5 6 12 12 13 16
Wind_Direction
115 103 97 97 99 103 101 94 81 72 69 75 81 83 88 241 85 71 78 63 51 44 37 46 43 37 41 31 33 51 76 83 74
117 111 106 105 106 106 102 92 80 71 63 79 87 80 34 99 100 83 73 53 38 45 34 26 24 31 30 34 55 72 74 74 70
122 119 118 117 116 118 117 109 99 92 84 91 93 82 351 101 76 53 41 37 42 46 38 32 23 12 15 22 44 58 72 70 67
135 132 129 120 116 116 117 115 103 97 90 96 106 101 10 45 63 47 52 47 48 47 45 36 29 21 12 10 14 38 44 56 67
121 127 119 120 118 123 124 121 115 105 90 83 71 114 233 91 89 71 64 36 46 44 40 32 24 25 22 16 10 14 15 356 1
167 78 121 122 129 140 142 134 125 118 119 96 112 248 271 235 270 2 92 341 3 42 30 15 5 12 12 9 15 21 22 26 27
172 118 118 121 125 159 159 156 148 221 235 178 201 254 278 260 256 295 126 262 272 224 215 288 302 314 327 328 343 4 20 47 57
202 191 195 210 184 221 202 187 221 237 266 259 268 287 272 266 264 232 209 254 264 255 223 227 255 264 262 267 283 319 349 20 16
214 225 218 224 223 239 246 247 249 243 243 258 269 266 268 264 261 253 206 250 259 265 246 233 240 251 254 256 260 271 298 308 320
213 227 229 236 236 241 244 247 252 252 255 250 252 259 258 259 259 268 169 237 252 258 265 250 238 245 248 248 248 244 239 239 230
221 230 233 236 233 238 245 252 255 260 254 261 255 259 259 262 259 265 261 204 239 248 252 259 253 243 244 244 241 235 242 234 231
227 243 238 233 233 243 245 252 256 261 257 261 262 259 264 260 263 254 261 250 211 236 245 249 255 253 245 246 246 232 219 232 232
230 238 243 244 235 238 243 247 248 252 259 262 260 253 256 260 259 260 257 254 264 212 227 241 244 249 249 244 247 239 221 217 218
232 240 246 242 242 239 245 246 248 260 258 262 265 261 261 262 259 260 262 259 255 263 225 216 246 249 249 252 249 246 235 219 218
237 245 247 248 244 247 243 251 254 256 270 270 267 266 263 261 258 259 264 269 267 267 267 264 244 227 242 246 249 252 250 236 222
241 248 251 245 248 252 258 261 258 256 249 267 260 251 251 269 264 266 275 284 269 270 269 261 266 258 219 244 249 249 251 251 234
247 250 255 251 250 255 254 246 249 254 248 260 312 280 281 258 250 268 276 291 296 277 278 285 283 282 282 288 277 256 256 258 259
310 285 280 269 259 258 269 263 240 247 229 230 246 260 259 343 199 253 275 298 306 314 290 303 306 304 300 299 275 250 266 271 267
15 330 296 269 265 257 261 254 235 239 242 201 240 253 225 244 275 263 269 247 273 297 293 292 316 313 314 328 303 318 306 291 281
29 359 329 317 289 274 273 267 233 220 229 222 204 216 209 231 238 257 246 279 275 304 312 330 327 356 340 332 348 347 321 304 292